{"data":{"norad_id":63126,"epoch":"2026-09-22T22:11:11.630688Z","epoch_age_seconds":101447,"freshness":"FRESH","line1":"1 63126U 25040B   26265.92444017  .00003460  00000+0  15618-3 0  9997","line2":"2 63126  97.3596  18.2326 0000434  28.5692 331.5568 15.21644171 87057","mean_motion":15.21644171,"eccentricity":4.34e-5,"inclination_deg":97.3596,"raan_deg":18.2326,"arg_perigee_deg":28.5692,"mean_anomaly_deg":331.5568,"bstar":0.00015618,"rev_number":8705,"period_min":94.634476801081,"perigee_km":500.58230839736,"apogee_km":501.17940714742,"semimajor_km":6879.0178577724,"source":"CELESTRAK","updated_at":"2026-09-23T09:00:21.836546Z"}}